[[{"header":{"parameterUnit":"m.s-1","parameterCategory":1,"la1":30.2991,"la2":30.254,"lo1":-89.0895,"lo2":-89.0444,"dy":0.0017,"dx":0.0017,"nx":28,"ny":28,"refTime":"2025-06-10T03:00:00:Z","depth":0,"parameterNumber":2,"parameterNumberName":"U-component_of_WINDS"},"data":[0,0,0,0,0,0,0,0,0,0,0,0,0,0,0,0,0,0,0,0,0,0,0,0,0,0,0,0,0,0,0,0,0,0,0,0,0,0,0,0,0,0,0,0,0,0,0,0,0,0,0,0,0,0,0,0,0,0,0.5496,0.5494,0,0.5266,0.5263,0.526,0.507,0.5068,0.5066,0.5064,0.4826,0.4822,0.4817,0,0,0,0,0,0,0,0,0,0,0,0,0,0.5776,0.5772,0.5497,0.5494,0.5491,0.5266,0.5263,0.526,0.507,0.5068,0.5065,0.5063,0.4827,0.4822,0.4817,0,0,0,0,0,0,0,0,0,0,0,0,0,0.5611,0.5771,0.5497,0.5369,0.5356,0.5267,0.5263,0.5259,0.5071,0.5068,0.5065,0.5062,0.4829,0.4823,0.4816,0.4835,0,0,0.4796,0.4793,0,0,0,0,0,0,0,0,0.5621,0.5601,0.5391,0.5378,0.5362,0.5193,0.5274,0.5117,0.5071,0.5179,0.5064,0.506,0.4951,0.4934,0.4897,0.4824,0.4813,0.4795,0.4791,0.4788,0.4786,0,0,0,0,0,0,0,0.5633,0.561,0.5405,0.5388,0.5371,0.5324,0.5298,0.5243,0.5084,0.5169,0.5155,0.513,0.4942,0.4904,0.489,0.481,0.4795,0.4789,0.4785,0.4782,0.4746,0.4748,0,0,0,0,0,0,0.5664,0.5621,0.5412,0.5398,0.5487,0.5322,0.5292,0.5251,0.5084,0.5056,0.5133,0.5122,0.4917,0.4898,0.4881,0.4893,0.4788,0.4782,0.4778,0.4743,0.4746,0.475,0,0,0,0,0,0,0.567,0.5647,0.5422,0.5506,0.5473,0.532,0.5276,0.5248,0.5209,0.5057,0.5028,0.5123,0.4914,0.489,0.4849,0.4882,0.4779,0.4773,0.4739,0.4744,0.4748,0.4918,0,0,0,0,0,0,0.5679,0.565,0.5655,0.5507,0.547,0.5393,0.5278,0.5245,0.5198,0.5182,0.504,0.5013,0.4909,0.486,0.4842,0.4871,0.4767,0.4735,0.4741,0.4746,0.4909,0.4928,0.4944,0,0,0,0,0,0.569,0.571,0.5656,0.5632,0.5472,0.5395,0.5374,0.5254,0.5202,0.5205,0.5109,0.5018,0.4883,0.4857,0.4836,0.4863,0.4732,0.4739,0.4746,0.4901,0.4924,0.4944,0,0,0,0,0,0,0.5862,0.5688,0.5626,0.5599,0.5514,0.5363,0.5363,0.5282,0.5209,0.5196,0.5052,0.5021,0.4996,0.4926,0.49,0.4875,0.4796,0.4799,0.4921,0.4942,0.496,0.4975,0.4762,0,0,0,0,0,0.5899,0.5851,0.5701,0.5692,0.5653,0.5517,0.5479,0.5395,0.53,0.5263,0.5162,0.5074,0.5012,0.4974,0.4908,0.49,0.4867,0.4909,0.4927,0.4942,0.4945,0.4938,0.4956,0.4772,0.4772,0.4772,0,0,0.597,0.5869,0.5847,0.5724,0.5648,0.5603,0.5487,0.5442,0.5408,0.5255,0.521,0.5136,0.5028,0.5004,0.4988,0.4944,0.499,0.4951,0.4964,0.4958,0.4947,0.4965,0.498,0.4777,0.4776,0.4775,0,0,0.6076,0.5996,0.598,0.5908,0.5796,0.5707,0.5704,0.5567,0.5512,0.5465,0.5352,0.531,0.5205,0.5134,0.5084,0.5174,0.5088,0.5158,0.5248,0.5244,0.5258,0.527,0.5303,0.5316,0.5162,0.5162,0.5163,0,0.6178,0.6105,0.5982,0.5946,0.5897,0.5762,0.5746,0.5682,0.5555,0.5524,0.5478,0.5347,0.5265,0.5224,0.5247,0.5212,0.5205,0.517,0.5267,0.5277,0.5287,0.5316,0.5328,0.5171,0.517,0.5169,0.5168,0,0.6237,0.6189,0.6191,0.6073,0.6025,0.6,0.5875,0.5841,0.5765,0.5682,0.5638,0.5537,0.5449,0.5435,0.5358,0.5385,0.5361,0.5294,0.521,0.5315,0.534,0.535,0.5184,0.5181,0.5178,0.5176,0,0,0.6437,0.6259,0.6261,0.6209,0.6079,0.604,0.6012,0.5928,0.5903,0.5822,0.5794,0.5714,0.5652,0.5596,0.5511,0.5508,0.5588,0.544,0.5435,0.547,0.5613,0.5663,0.5677,0.5533,0.5534,0.5536,0.5621,0,0.6522,0.6461,0.6354,0.6328,0.6284,0.616,0.6135,0.6054,0.5978,0.593,0.5846,0.5791,0.5713,0.5679,0.5671,0.558,0.5614,0.5573,0.5505,0.5504,0.5532,0.569,0.5741,0.5826,0.563,0.5632,0.5633,0,0.6609,0.6539,0.651,0.6389,0.6366,0.6346,0.6264,0.622,0.6128,0.6073,0.6016,0.5925,0.5891,0.5819,0.577,0.5745,0.5712,0.5665,0.5665,0.5651,0.5572,0.5678,0.585,0.5863,0.5647,0.5646,0.5645,0,0.6757,0.6656,0.6626,0.6585,0.6443,0.6433,0.6373,0.6278,0.6238,0.6167,0.6139,0.6066,0.6025,0.5972,0.5865,0.5823,0.5829,0.5748,0.5782,0.5785,0.5784,0.5785,0.5952,0.577,0.577,0.577,0.5769,0,0.686,0.6847,0.6692,0.6673,0.6657,0.6536,0.6523,0.6453,0.6371,0.6338,0.6227,0.6198,0.6061,0.6017,0.5934,0.5908,0.589,0.5846,0.5823,0.5853,0.5859,0.5826,0.5817,0.5773,0.5772,0.5771,0.5771,0,0.7019,0.6915,0.6875,0.6747,0.6715,0.6709,0.6599,0.6578,0.6499,0.6459,0.6442,0.6318,0.6261,0.6152,0.6064,0.6008,0.6,0.5962,0.6031,0.6016,0.6057,0.6054,0.6205,0.6219,0.6032,0.6034,0.6036,0,0.709,0.7077,0.6951,0.6922,0.6867,0.6821,0.6781,0.6665,0.6627,0.6526,0.6517,0.6453,0.6394,0.6311,0.6213,0.6147,0.6105,0.6163,0.6093,0.6126,0.6104,0.6105,0.6103,0.6177,0.6179,0.6181,0.6183,0,0.7226,0.7177,0.7122,0.7053,0.7008,0.6946,0.6879,0.6862,0.6731,0.6695,0.6637,0.6593,0.6506,0.6444,0.6365,0.6304,0.6223,0.6208,0.6211,0.624,0.628,0.6258,0.607,0.6203,0.6201,0.6199,0.6198,0.6197,0.734,0.7326,0.7236,0.7181,0.712,0.7061,0.7036,0.6957,0.6907,0.6828,0.6764,0.6713,0.6627,0.6512,0.6459,0.6417,0.6377,0.6384,0.6384,0.6387,0.64,0.6291,0.6403,0.6402,0.6401,0.6401,0.64,0,0.7469,0.7408,0.7359,0.7271,0.7229,0.7161,0.7085,0.7054,0.701,0.6938,0.6885,0.6822,0.6763,0.6664,0.6598,0.6584,0.6545,0.6571,0.6568,0.6556,0.6439,0.6442,0.6603,0.6603,0.6603,0.6603,0.6603,0.6603,0.7531,0.7503,0.7445,0.7387,0.7325,0.7275,0.7238,0.7185,0.7127,0.7062,0.7013,0.6951,0.6868,0.6797,0.6741,0.6714,0.6693,0.6731,0.6691,0.6583,0.6564,0.6545,0.6547,0.6728,0.6728,0.681,0.6811,0.6812]},{"header":{"parameterUnit":"m.s-1","parameterCategory":1,"la1":30.2991,"la2":30.254,"lo1":-89.0895,"lo2":-89.0444,"dy":0.0017,"dx":0.0017,"nx":28,"ny":28,"refTime":"2025-06-10T03:00:00:Z","depth":0,"parameterNumber":3,"parameterNumberName":"V-component_of_WINDS"},"data":[0,0,0,0,0,0,0,0,0,0,0,0,0,0,0,0,0,0,0,0,0,0,0,0,0,0,0,0,0,0,0,0,0,0,0,0,0,0,0,0,0,0,0,0,0,0,0,0,0,0,0,0,0,0,0,0,0,0,3.0316,3.0317,0,3.0428,3.0429,3.043,3.0387,3.0384,3.0382,3.0379,3.0483,3.0488,3.0493,0,0,0,0,0,0,0,0,0,0,0,0,0,3.0052,3.0057,3.0316,3.0317,3.0319,3.0428,3.0429,3.0431,3.0387,3.0384,3.0381,3.0378,3.0481,3.0487,3.0493,0,0,0,0,0,0,0,0,0,0,0,0,0,3.0165,3.0059,3.0315,3.031,3.0311,3.0427,3.0429,3.0431,3.0388,3.0384,3.038,3.0377,3.0479,3.0487,3.0494,3.0618,0,0,3.0518,3.0521,0,0,0,0,0,0,0,0,3.0159,3.0175,3.031,3.0311,3.0312,3.039,3.0374,3.0493,3.0389,3.0359,3.0379,3.0375,3.0454,3.0464,3.0493,3.0623,3.0628,3.0518,3.0523,3.0526,3.0529,0,0,0,0,0,0,0,3.0151,3.017,3.036,3.0312,3.0313,3.0298,3.031,3.0396,3.0426,3.0361,3.0358,3.0373,3.0454,3.0485,3.0495,3.0629,3.0518,3.0525,3.053,3.0533,3.0865,3.0869,0,0,0,0,0,0,3.0145,3.0164,3.0356,3.0363,3.0225,3.0306,3.032,3.0368,3.0425,3.043,3.0376,3.037,3.0474,3.0486,3.0498,3.0647,3.0526,3.0534,3.0538,3.0861,3.0866,3.087,0,0,0,0,0,0,3.0139,3.0162,3.0352,3.0263,3.0286,3.0315,3.037,3.0373,3.0404,3.0437,3.044,3.0403,3.0472,3.0487,3.0589,3.065,3.0537,3.0544,3.0856,3.0862,3.0868,3.0945,0,0,0,0,0,0,3.0132,3.0161,3.0211,3.0264,3.0291,3.0445,3.0374,3.0378,3.0419,3.0413,3.0463,3.0468,3.047,3.0578,3.0597,3.0658,3.055,3.085,3.0859,3.0866,3.0937,3.0953,3.0967,0,0,0,0,0,3.0123,3.0226,3.0214,3.0237,3.0355,3.0448,3.0463,3.0466,3.0424,3.0473,3.0493,3.0466,3.064,3.0589,3.061,3.0674,3.0847,3.0856,3.0866,3.093,3.095,3.0966,0,0,0,0,0,0,3.0175,3.0233,3.022,3.0345,3.0393,3.0441,3.0503,3.0487,3.0544,3.0536,3.0534,3.0545,3.065,3.0672,3.0614,3.0796,3.0736,3.0751,3.0779,3.0797,3.0812,3.0804,3.0556,0,0,0,0,0,3.0202,3.0277,3.0321,3.0427,3.0452,3.0473,3.0514,3.0513,3.056,3.0579,3.0607,3.0651,3.0715,3.0757,3.0818,3.094,3.0949,3.0994,3.1009,3.1021,3.1033,3.1097,3.1117,3.0901,3.0901,3.0901,0,0,3.0256,3.0297,3.0344,3.0438,3.0475,3.0549,3.049,3.0571,3.0624,3.059,3.0689,3.0711,3.0759,3.0871,3.0922,3.0893,3.1095,3.1033,3.1043,3.1048,3.1109,3.1129,3.1147,3.0908,3.0907,3.0906,0,0,3.0394,3.0433,3.0525,3.0564,3.0622,3.0636,3.0657,3.0709,3.0723,3.0823,3.0798,3.086,3.0971,3.1007,3.1039,3.119,3.1166,3.1209,3.1286,3.1349,3.1366,3.1381,3.1433,3.1452,3.1221,3.1221,3.1221,0,3.0453,3.0568,3.0573,3.0657,3.0698,3.0674,3.0764,3.08,3.0873,3.09,3.0867,3.1006,3.1037,3.1157,3.1194,3.1221,3.1243,3.1203,3.1364,3.1379,3.1393,3.1442,3.1462,3.1226,3.1225,3.1225,3.1224,0,3.0637,3.0716,3.0783,3.0859,3.0907,3.0993,3.1008,3.1055,3.105,3.1065,3.1166,3.1202,3.127,3.1298,3.1292,3.1416,3.1396,3.1364,3.1303,3.1418,3.1465,3.1484,3.1233,3.1231,3.123,3.1228,0,0,3.0811,3.0889,3.0913,3.0947,3.1009,3.1068,3.1151,3.1221,3.1261,3.1312,3.138,3.1475,3.1445,3.1482,3.1479,3.1534,3.1649,3.1494,3.1495,3.1521,3.1787,3.1811,3.1833,3.1634,3.1638,3.1641,3.1782,0,3.0952,3.1105,3.1112,3.1248,3.132,3.1297,3.1369,3.1413,3.143,3.149,3.1506,3.1574,3.153,3.1552,3.1606,3.1624,3.1702,3.1614,3.1694,3.1697,3.1683,3.1857,3.1883,3.2015,3.1801,3.1804,3.1806,0,3.1138,3.1199,3.1344,3.1395,3.1425,3.1491,3.1555,3.1614,3.1661,3.1669,3.1711,3.17,3.1781,3.1719,3.1829,3.1769,3.1802,3.1816,3.1821,3.1828,3.1758,3.1868,3.2057,3.2077,3.1835,3.1833,3.183,0,3.1249,3.1366,3.1468,3.1498,3.156,3.1606,3.1633,3.1678,3.1719,3.1773,3.1799,3.1861,3.1894,3.1941,3.1945,3.19,3.2056,3.1994,3.2062,3.2062,3.2096,3.2093,3.2292,3.2118,3.2118,3.2118,3.2117,0,3.1406,3.1495,3.1519,3.1582,3.168,3.1685,3.178,3.1803,3.1843,3.1906,3.1889,3.1948,3.1951,3.201,3.2014,3.2104,3.2119,3.2125,3.2125,3.2127,3.2126,3.2148,3.2139,3.2123,3.2122,3.2121,3.212,0,3.1547,3.1567,3.1676,3.1727,3.1742,3.1812,3.1853,3.191,3.1926,3.2006,3.2025,3.2047,3.2117,3.2126,3.2206,3.2208,3.2316,3.2306,3.2302,3.23,3.2367,3.236,3.2586,3.2615,3.2423,3.2425,3.2427,0,3.1646,3.1715,3.1774,3.1817,3.1848,3.1918,3.1961,3.1967,3.2012,3.2071,3.212,3.2189,3.2244,3.2354,3.2375,3.2435,3.2426,3.2501,3.2435,3.2434,3.2426,3.2422,3.2428,3.2514,3.2516,3.2518,3.2519,0,3.1819,3.1826,3.1891,3.1959,3.2012,3.2064,3.2114,3.2149,3.2162,3.2212,3.2285,3.2327,3.241,3.2477,3.2537,3.256,3.2541,3.254,3.2559,3.2561,3.2555,3.2558,3.2336,3.2534,3.2533,3.2532,3.2531,3.253,3.1941,3.2001,3.2052,3.2124,3.2163,3.221,3.2267,3.2291,3.2353,3.2423,3.2422,3.2501,3.2544,3.2623,3.2651,3.271,3.2685,3.2712,3.2719,3.2726,3.2732,3.2547,3.2721,3.272,3.272,3.272,3.2719,0,3.2113,3.2145,3.2212,3.2284,3.234,3.2321,3.2374,3.2421,3.2493,3.2536,3.2592,3.2674,3.2738,3.2765,3.2827,3.2869,3.2862,3.2885,3.2882,3.2887,3.2751,3.2729,3.289,3.289,3.289,3.289,3.289,3.289,3.2208,3.2309,3.2321,3.2439,3.2469,3.255,3.2582,3.2623,3.2659,3.2753,3.2808,3.2826,3.2862,3.2927,3.2984,3.2989,3.3012,3.304,3.3041,3.2914,3.2897,3.288,3.2859,3.3045,3.3045,3.3172,3.3173,3.3174]}]]